Weather WX

World > North America > United States > Ohio

Withamsville, Ohio Regional Weather

Lat: 39.06N, Lon: 84.27W
Wx Zone: OHZ078
Warning FLW WEATHER ALERT - TORNADO WATCH (More Info. Click Here) Warning
Feedback

Withamsville, OH Regional Weather

Expires:201906160400;;139969
ASUS41 KCLE 160312
RWRCLE
OHIO REGIONAL WEATHER ROUNDUP
NATIONAL WEATHER SERVICE WILMINGTON, OH
1100 PM EDT SAT JUN 15 2019

NOTE: "FAIR" INDICATES FEW OR NO CLOUDS BELOW 12,000 FEET WITH NO
SIGNIFICANT WEATHER AND/OR OBSTRUCTIONS TO VISIBILITY.


OHZ042-051>053-060>062-070>072-077>081-160400-
  SOUTHWEST OHIO
  
CITY           SKY/WX    TMP DP  RH WIND       PRES   REMARKS
CINC-COVINGTON LGT RAIN  72  65  78 S14       29.81F                  
CINC-LUNKEN    LGT RAIN  72  66  81 S14       29.82F                  
HAMILTON       HVY RAIN  69  68  96 NW17G28   29.85R FOG              
DAYTON         HVY RAIN  70  67  90 SW13G23   29.82F FOG              
WRIGHT-PAT AFB LGT RAIN  72  66  83 VRB5      29.81F FOG              
DAYTON GENERAL HVY RAIN  71  67  87 S15G25    29.84R FOG              
WILMINGTON     RAIN      69  66  90 S13       29.85R FOG              
$$


SKY/WX - Weather  TMP - Temperature  DP - Dew Point  RH - Relative Humidity
WIND - Wind Direction/Speed PRES - Barometric Pressure VSB - Visibility
WCI - Wind Chill Index E13G22 Wind - East Wind 13 mph/Gusts of 22 mph